星链-31654 (STARLINK-31654 )

导读 | 星芒AI

STARLINK-31654 是 SpaceX Starlink 卫星互联网项目中的一颗低轨卫星,属于第二代 Starlink 卫星群。该卫星于2023年发射,旨在为全球用户提供高速、低延迟的宽带互联网服务。它运行在约550公里高的近地轨道,配备先进通信设备和激光链路,以提升网络效率和覆盖范围。作为 Starlink 计划的重要组成部分,该卫星有助于扩大偏远地区的网络接入,支持多种应用场景,包括教育、医疗和应急通信。

基本信息
目录编号:
59858
目录名称:
STARLINK-31654
国际标识:
2024-098A
轨道中心:
EARTH
卫星名称:
星链-31654
卫星全名:
星链-31654 (STARLINK-31654 )
卫星状态:
在轨 (已飞行526 天)
发射日期:
2024-05-24 UTC
国别 :
美国 (US)
星等 :
--
轨道信息
数据来源 国际轨道数据
星历时间: 2025-10-31T23:03:23+0800
1天前
查看轨道信息
半长轴: 6861.199km
偏心率: 0.0000752
轨道倾角: 42.999°
近地点辐角 285.950°
升交点赤经 279.444°
平近点角 74.127°
近地点: 482.548km
远地点: 483.58km
周期: 94.267分钟
每日圈数: 15.275758
详细信息
固有亮度:
5
最大亮度:
1.5
卫星平台:
Starlink v2.0 mini
覆盖范围:
全球
运营商:
太空探索技术公司
运营商所在国:
美国
制造商(研发单位):
太空探索技术公司
制造商所在国:
美国
使用方式:
暂无
卫星简介
星链(Starlink)计划是由太空探索技术公司(SpaceX)提出的一个巨型低轨卫星互联网星座项目,计划在2019年至2024年间在太空搭建由约1.2万颗卫星组成的“星链”网络,其中1584颗将部署在地球上空550千米处的近地轨道,并从2020年开始工作。该卫星仍在工作。
2D轨道图
3D轨道图
轨道高度分析图
轨道倾角分析图
轨道综合分析图
查看轨道综合分析图